Home > Weather > New Amsterdam > Past weeks

Flag for Guyana Weather for the Past 2 Weeks in New Amsterdam, Guyana

Now
75 °F

Passing clouds.


Feels Like: 74 °F
Forecast: 77 / 85 °F
Wind: 7 mph from Northeast

Location: Georgetown/Cheddi Jagan International Airport

Current Time: Feb 6, 2016 at 6:23:08 AM

Latest Report: Feb 6, 2016 at 6:00 AM


Visibility: N/A

Pressure: 29.95 "Hg

Humidity: 94%

Dew point: 73 °F

Location of New AmsterdamLocation

Historic Weather in New Amsterdam — Graph

°F

New Amsterdam Temperature Yesterday

Maximum temperature yesterday: 88 °F (at 12:00 PM)
Minimum temperature yesterday: 73 °F (at 2:00 AM)
Average temperature yesterday: 80 °F

High & Low Weather Summary for the Past Weeks

 TemperatureHumidityPressure
High91 °F (Feb 2, 12:00 PM)100% (Jan 23, 11:00 PM)30.04 "Hg (Jan 23, 11:00 PM)
Low36 °F (Feb 4, 5:00 AM)43% (Jan 22, 3:00 PM)29.83 "Hg (Feb 2, 3:00 PM)
Average78 °F82%29.93 "Hg
* Reported Jan 22 5:00 AM — Feb 6 5:00 AM, New Amsterdam, Weather by CustomWeather, © 2016

Note: Actual official high and low records may vary slightly from our data, if they occured in-between our weather recording intervals... More about our weather records

Advertising

New Amsterdam Weather History for the Previous 24 Hours

 ConditionsComfort  
Time TempWeatherWind HumidityBarometerVisibility
5:00 AM
Sat, Feb 6
75 °FPassing clouds.7 mph94%29.95 "HgN/A
4:00 AM75 °FPassing clouds.5 mph94%29.95 "HgN/A
3:00 AM75 °FPassing clouds.7 mph94%29.95 "HgN/A
2:00 AM75 °FPassing clouds.7 mph94%29.92 "HgN/A
1:00 AM75 °FPassing clouds.5 mph94%29.95 "HgN/A
12:00 AM77 °FPassing clouds.5 mph89%29.98 "HgN/A
11:00 PM
Fri, Feb 5
75 °FPassing clouds.7 mph94%29.98 "HgN/A
10:00 PM75 °FPassing clouds.7 mph94%29.98 "HgN/A
9:00 PM77 °FPassing clouds.5 mph89%29.95 "HgN/A
8:00 PM77 °FPassing clouds.7 mph89%29.92 "HgN/A
7:00 PM79 °FPartly cloudy.7 mph89%29.92 "HgN/A
6:00 PM81 °FBroken clouds.9 mph74%29.89 "HgN/A
5:00 PM84 °FScattered clouds.16 mph70%29.89 "HgN/A
4:00 PM86 °FScattered clouds.16 mph66%29.89 "HgN/A
3:00 PM86 °FPartly sunny.16 mph66%29.89 "HgN/A
2:00 PM88 °FPartly sunny.16 mph62%29.92 "HgN/A
1:00 PM88 °FPartly sunny.16 mph62%29.95 "HgN/A
12:00 PM88 °FPartly sunny.14 mph62%29.95 "HgN/A
11:00 AM86 °FPartly sunny.12 mph66%29.98 "HgN/A
10:00 AM84 °FPartly sunny.12 mph74%29.98 "HgN/A
9:00 AM82 °FScattered clouds.9 mph79%29.98 "HgN/A
8:00 AM79 °FScattered clouds.2 mph89%29.95 "HgN/A
7:00 AM73 °FScattered clouds.5 mph100%29.92 "Hg6 mi
6:00 AM73 °FPassing clouds.No wind94%29.89 "Hg6 mi
Weather by CustomWeather, © 2016

See weather overviewHow to use our weather pages